SYRACUSE 3B

Last updated on Thu Jul 03 2025 00:02:44 GMT+0000 (Coordinated Universal Time)

1 29273U 06033B 25183.42266964 .00000027 00000+0 00000+0 0 9990 2 29273 2.0037 84.6143 0003071 7.3294 344.1536 1.00271766 69167
UTC large
Height (km)
Speed (km/s)
/
Latitude / Longitude
Inclination (degrees)
Orbital Period (minutes)
Azimuth
Elevation
Range (km)
Doppler Factor

Next 0 passes for location: London (51.5072 / 0.1276)

Sorry there are no passes over London.